sat.trackr.live / text

‹ back to catalog

STARLINK-36031

NORAD 66593 · 2025-270F

PAYLOAD ACTIVE UNKNOWN

§ Identity

Operator
Country
US
Launch date
2025-11-22
Launch site
AFETR
Launch vehicle
Mass (kg)
RCS (m²)

Purposes: comms

External: N2YO · Heavens-Above · Gunter

§ Orbital elements

Epoch: 2026-05-24T23:11:22.202016Z

Period
94.27 min
Inclination
43.0008°
Eccentricity
0.0001633
Mean motion
15.27592194 rev/d
Perigee alt
481.9 km
Apogee alt
484.1 km
Semi-major
6,861.1 km
B*
5.4368e-4
RAAN
345.2185°
Arg perigee
270.0394°
Mean anomaly
90.0270°
Rev number
2,937

§ Raw data

STARLINK-360311 66593U 25270F   26144.96622919  .00014734  00000+0  54368-3 0  99932 66593  43.0008 345.2185 0001633 270.0394  90.0270 15.27592194 29376

JSON: /api/v1/satellites/66593 · /tle

For live sub-satellite position, see the globe view (requires WebGL).

§ Visibility from observer

Set your observer location to see the next 7 days of passes ≥ 10°. The values pass through the URL so the page stays shareable.

No JS? Fill the form by hand. The geolocation button needs JavaScript.